Miscellaneous Local Product
Issued by NWS Hastings, NE

Home | Current Version | Previous Version | Text Only | Print | Product List | Glossary On
Versions: 1 2 3 4 5 6 7 8 9 10 11 12 13 14 15 16 17 18 19 20 21 22 23 24 25 26 27 28 29 30 31 32 33 34 35 36 37 38 39 40 41 42 43 44 45 46 47 48 49 50
265
AXUS43 KGID 212302
MISGRI

GID CWA HOURLY WEATHER ROUNDUP
NATIONAL WEATHER SERVICE HASTINGS NE
600 PM CDT THU SEP 21 2017

NOTE: "FAIR" INDICATES FEW OR NO CLOUDS BELOW 12,000 FEET WITH NO
SIGNIFICANT WEATHER AND/OR OBSTRUCTIONS TO VISIBILITY.

...SOUTH CENTRAL NEBRASKA...

CITY           SKY/WX    TMP DP  RH WIND       PRES   REMARKS
GRAND ISLAND   SUNNY     91  67  44 SE18G29   29.68S HX  94
HASTINGS       MOSUNNY   93  62  35 S18G28    29.68S HX  93
KEARNEY        SUNNY     95  52  23 S24G31    29.65S HX  92
ORD            SUNNY     91  60  35 S16G23    29.63F HX  90
YORK           SUNNY     91  66  43 S20G30    29.69F HX  94
AURORA         SUNNY     91  64  41 S20       29.68F HX  92
LEXINGTON      SUNNY     97  39  13 S18       29.63F HX  92
HOLDREGE       SUNNY     94  41  15 S15G26    29.65F HX  90
HEBRON         SUNNY     94  66  39 SE21G31   29.70R HX  97

...NEBRASKA PANHANDLE...

CITY           SKY/WX    TMP DP  RH WIND       PRES   REMARKS
CHADRON        SUNNY     90  27  10 SE14      29.60S
ALLIANCE       SUNNY     85  39  19 SE10      29.66F
SCOTTSBLUFF    SUNNY     87  37  17 E15       29.64S
SIDNEY         SUNNY     89  34  14 E10       29.67F

...WESTERN AND NORTH CENTRAL NEBRASKA...

CITY           SKY/WX    TMP DP  RH WIND       PRES   REMARKS
VALENTINE      SUNNY     91  48  22 S16G23    29.63S
AINSWORTH      SUNNY     87  53  30 S12       29.65R
ONEILL         SUNNY     89  64  44 SE15G23   29.66S HX  90
BROKEN BOW     SUNNY     94  53  25 S21G26    29.64F HX  91
IMPERIAL       SUNNY     95  23   7 S21G30    29.62R
NORTH PLATTE   SUNNY     95  40  14 S22G28    29.61F HX  91
MCCOOK         LGT RAIN  97  38  13 S23G32    29.62S HX  92

...EASTERN NEBRASKA...

CITY           SKY/WX    TMP DP  RH WIND       PRES   REMARKS
NORFOLK        SUNNY     89  70  53 S18G30    29.67S HX  94
SO SIOUX CITY  MOSUNNY   89  73  59 S13G31    29.70R HX  97
TEKAMAH        SUNNY     90  71  53 S14G23    29.71R HX  96
COLUMBUS       SUNNY     91  69  48 S16G26    29.68F HX  96
ALBION         SUNNY     90  71  52 SE14G29   29.68S HX  95
OMAHA EPPLEY   MOSUNNY   91  71  51 S26G37    29.72S HX  97
OFFUTT AFB     SUNNY     90  71  53 SE21G28   29.73R HX  96
MILLARD        SUNNY     92  73  52 S16G26    29.73S HX 101
LINCOLN        SUNNY     92  70  48 S18G30    29.71S HX  97
NEBRASKA CITY  MOSUNNY   89  74  60 S22G28    29.77R HX  97
BEATRICE       SUNNY     92  72  52 S20G30    29.73S HX  99
FALLS CITY     MOSUNNY   90  73  57 S21G31    29.77F HX  98

...NORTHERN KANSAS...

CITY           SKY/WX    TMP DP  RH WIND       PRES   REMARKS
GOODLAND       SUNNY     92  34  13 S26G33    29.66F
HILL CITY      SUNNY     99  40  13 S21G35    29.65F HX  94
NORTON         CLEAR     95  25   8 S20G31    29.64R
PHILLIPSBURG   SUNNY     99  34  10 S17G28    29.64S HX  93
SMITH CENTER   PTSUNNY   93  57  29 S25G31    29.65F HX  92
HAYS           SUNNY     98  51  20 S22G32    29.66S HX  95
RUSSELL        MOSUNNY   96  60  30 S28G39    29.66F HX  96
CONCORDIA      SUNNY     92  69  47 S18G31    29.70S HX  97
SALINA         MOSUNNY   98  68  37 S31G40    29.71S HX 103
TOPEKA         SUNNY     90  76  63 SE20G31   29.79F HX 101



USA.gov is the U.S. government's official web portal to all federal, state and local government web resources and services.